TimeCDT,TemperatureF,Dew PointF,Humidity,Sea Level PressureIn,VisibilityMPH,Wind Direction,Wind SpeedMPH,Gust SpeedMPH,PrecipitationIn,Events,Conditions,WindDirDegrees,DateUTC
12:52 AM,45.0,37.0,74,30.11,10.0,SE,3.5,-,N/A,,Clear,130,2013-10-24 05:52:00
1:52 AM,43.0,37.9,82,30.12,10.0,Calm,Calm,-,N/A,,Clear,0,2013-10-24 06:52:00
2:52 AM,44.1,37.9,79,30.13,10.0,NNE,4.6,-,N/A,,Overcast,20,2013-10-24 07:52:00
3:52 AM,41.0,37.0,86,30.14,10.0,Calm,Calm,-,N/A,,Partly Cloudy,0,2013-10-24 08:52:00
4:52 AM,37.9,36.0,93,30.17,10.0,NW,3.5,-,N/A,,Clear,310,2013-10-24 09:52:00
5:52 AM,39.0,36.0,89,30.21,10.0,NNW,9.2,-,N/A,,Scattered Clouds,340,2013-10-24 10:52:00
6:52 AM,39.0,36.0,89,30.24,10.0,NNE,10.4,-,N/A,,Clear,20,2013-10-24 11:52:00
7:52 AM,39.9,35.1,83,30.28,10.0,North,11.5,-,N/A,,Overcast,360,2013-10-24 12:52:00
8:52 AM,41.0,35.1,79,30.31,10.0,North,11.5,-,N/A,,Overcast,10,2013-10-24 13:52:00
9:52 AM,44.1,32.0,63,30.33,10.0,NNE,13.8,-,N/A,,Clear,20,2013-10-24 14:52:00
10:52 AM,45.0,30.0,56,30.34,10.0,NNE,11.5,-,N/A,,Partly Cloudy,20,2013-10-24 15:52:00
11:52 AM,46.9,28.9,50,30.35,10.0,NNE,13.8,-,N/A,,Clear,20,2013-10-24 16:52:00
12:52 PM,48.9,28.0,44,30.35,10.0,North,10.4,-,N/A,,Clear,360,2013-10-24 17:52:00
1:52 PM,48.9,26.1,41,30.34,10.0,North,8.1,19.6,N/A,,Clear,350,2013-10-24 18:52:00
2:52 PM,50.0,25.0,38,30.33,10.0,North,12.7,23.0,N/A,,Clear,350,2013-10-24 19:52:00
3:52 PM,50.0,25.0,38,30.33,10.0,NNW,17.3,23.0,N/A,,Clear,330,2013-10-24 20:52:00
4:52 PM,50.0,25.0,38,30.33,10.0,NNW,12.7,20.7,N/A,,Clear,330,2013-10-24 21:52:00
5:52 PM,46.9,25.0,42,30.34,10.0,North,5.8,-,N/A,,Clear,360,2013-10-24 22:52:00
6:52 PM,43.0,25.0,49,30.35,10.0,North,6.9,-,N/A,,Clear,360,2013-10-24 23:52:00
7:52 PM,41.0,26.1,55,30.37,10.0,North,6.9,-,N/A,,Clear,360,2013-10-25 00:52:00
8:52 PM,39.9,26.1,58,30.39,10.0,North,4.6,-,N/A,,Clear,360,2013-10-25 01:52:00
9:52 PM,39.0,27.0,62,30.41,10.0,NNE,4.6,-,N/A,,Clear,20,2013-10-25 02:52:00
10:52 PM,39.9,26.1,58,30.43,10.0,NE,5.8,-,N/A,,Clear,50,2013-10-25 03:52:00
11:52 PM,37.9,27.0,65,30.43,10.0,ENE,5.8,-,N/A,,Clear,60,2013-10-25 04:52:00